Location: Rounton
(54.4000°N, 1.3500°W)
Time: 13:42:32
(UTC+00:00)

Transit 2A - Pass Details

Date: 07 December 2021
Orbit: 591 x 967 km, 66.7° (Epoch: 21 January)

Event Time Altitude Azimuth Distance (km) Brightness Sun altitude
Rises 23:46:19 0° 212° (SSW) 3,368 - -58.2°
Reaches altitude 10° 23:48:40 10° 211° (SSW) 2,489 - -58.3°
Maximum altitude 23:54:29 76° 127° (SE) 945 - -58.3°
Drops below altitude 10° 00:00:48 10° 43° (NE) 2,690 - -58.3°
Sets 00:03:26 0° 43° (NE) 3,657 - -58.3°
